This is the latest recevied weather packets stored in our database for station/object KC9DNQ-3. If no packets are shown the sender has not sent any weather packets the latest 1 day(s).
| Time | Temp. | Humidity | Pressure | Rain* | Wind** | Luminosity | Snow |
|---|---|---|---|---|---|---|---|
| 1778004020 | 12.78° C | 49% | 1008.7 hPa | 0 mm | 2.24 m/s, 258° | 227 W/m² | - |
| 1778003708 | 12.78° C | 51% | 1008.7 hPa | 0 mm | 1.79 m/s, 251° | 239 W/m² | - |
| 1778003409 | 12.78° C | 53% | 1008.7 hPa | 0 mm | 1.34 m/s, 297° | 269 W/m² | - |
| 1778003108 | 12.78° C | 54% | 1008.7 hPa | 0 mm | 0.89 m/s, 277° | 283 W/m² | - |
| 1778002808 | 12.78° C | 54% | 1008.7 hPa | 0 mm | 1.34 m/s, 296° | 281 W/m² | - |
| 1778002508 | 12.78° C | 54% | 1008.6 hPa | 0 mm | 1.34 m/s, 267° | 250 W/m² | - |
| 1778002208 | 12.78° C | 54% | 1008.6 hPa | 0 mm | 1.34 m/s, 239° | 274 W/m² | - |
| 1778001908 | 12.78° C | 54% | 1008.6 hPa | 0 mm | 1.79 m/s, 237° | 297 W/m² | - |
| 1778001609 | 12.78° C | 50% | 1008.6 hPa | 0 mm | 1.34 m/s, 306° | 316 W/m² | - |
| 1778001307 | 13.33° C | 53% | 1008.6 hPa | 0 mm | 2.68 m/s, 300° | 346 W/m² | - |
| 1778001008 | 13.33° C | 51% | 1008.7 hPa | 0 mm | 2.24 m/s, 290° | 399 W/m² | - |
| 1778000708 | 13.33° C | 53% | 1008.6 hPa | 0 mm | 1.79 m/s, 306° | 357 W/m² | - |
| 1778000408 | 13.33° C | 50% | 1008.5 hPa | 0 mm | 1.34 m/s, 292° | 396 W/m² | - |
| 1778000108 | 13.33° C | 49% | 1008.5 hPa | 0 mm | 2.24 m/s, 294° | 381 W/m² | - |
| 1777999807 | 13.33° C | 48% | 1008.4 hPa | 0 mm | 1.34 m/s, 333° | 374 W/m² | - |
| 1777999508 | 13.33° C | 49% | 1008.4 hPa | 0 mm | 2.24 m/s, 307° | 422 W/m² | - |
| 1777999208 | 13.33° C | 51% | 1008.4 hPa | 0 mm | 1.79 m/s, 311° | 471 W/m² | - |
| 1777998908 | 13.33° C | 48% | 1008.4 hPa | 0 mm | 1.34 m/s, 313° | 555 W/m² | - |
| 1777998609 | 13.33° C | 50% | 1008.4 hPa | 0 mm | 0.89 m/s, 316° | 482 W/m² | - |
| 1777998308 | 13.33° C | 50% | 1008.4 hPa | 0 mm | 2.24 m/s, 281° | 617 W/m² | - |
| 1777998008 | 13.33° C | 53% | 1008.4 hPa | 0 mm | 2.68 m/s, 285° | 761 W/m² | - |
| 1777997708 | 12.78° C | 57% | 1008.5 hPa | 0 mm | 0.89 m/s, 295° | 761 W/m² | - |
| 1777997408 | 12.78° C | 57% | 1008.1 hPa | 0 mm | 2.24 m/s, 303° | 362 W/m² | - |
| 1777997108 | 12.22° C | 59% | 1008.1 hPa | 0 mm | 1.79 m/s, 293° | 362 W/m² | - |
| 1777996808 | 12.22° C | 59% | 1008.1 hPa | 0 mm | 2.24 m/s, 298° | 450 W/m² | - |
* Rain latest hour (hover to see other rain measurements)
** Current wind speed in m/s (hover to see current wind gust speed)